Temp
83 83 82 79 77 73 71 71 72 73 74 75 74 74 72 70 69 71 72 69 68 71 73 72 71 69 70 67 68 68 69 69 67 68 70 71 70 69 70 70 70 70 72
83 81 77 76 73 71 69 72 73 72 72 72 74 72 71 70 69 69 72 74 73 73 74 70 71 72 71 71 70 70 70 70 67 66 69 69 68 69 69 69 71 74 74
76 73 71 70 71 70 70 69 70 69 69 70 69 71 69 69 71 70 70 70 69 70 71 70 71 69 71 72 71 70 68 71 68 68 68 68 68 68 69 70 72 72 73
71 69 68 69 70 69 70 69 69 68 68 68 68 67 67 67 67 67 67 67 67 68 69 69 68 68 68 70 69 67 66 65 65 65 65 67 66 67 66 66 66 68 70
68 66 64 66 67 68 68 67 65 67 69 68 68 67 67 67 67 66 67 67 66 67 68 69 70 70 69 68 66 65 65 63 63 63 62 61 62 61 62 63 63 63 64
64 63 64 66 67 66 65 64 65 66 66 67 67 67 66 67 64 65 64 64 66 67 68 68 69 70 69 68 68 67 67 63 61 60 60 60 62 61 62 62 62 61 61
65 65 65 65 64 65 65 65 65 66 66 67 67 67 63 63 64 65 68 66 67 66 67 66 69 72 67 67 67 67 67 67 66 63 62 61 60 62 62 61 62 62 62
65 64 63 64 65 65 64 64 64 65 66 67 66 65 63 63 62 63 65 63 64 65 65 64 63 62 62 64 66 65 65 67 67 68 63 64 63 63 61 62 61 61 63
65 64 64 64 63 64 64 64 65 65 64 65 65 64 62 62 60 61 62 61 61 60 60 61 60 59 61 61 60 59 59 62 67 65 64 63 63 63 63 59 59 56 61
65 65 66 66 65 64 64 63 63 64 63 64 64 63 62 61 59 59 61 61 58 59 57 58 61 59 59 59 57 55 54 56 57 58 62 63 63 63 63 59 58 55 55
66 67 65 65 64 63 62 62 62 62 62 61 62 62 61 60 59 58 59 59 58 58 57 57 58 60 56 55 56 53 54 55 57 55 55 56 58 59 61 61 59 60 57
67 65 63 63 66 63 61 60 60 59 59 59 59 59 61 59 58 57 57 58 60 57 56 55 55 55 53 53 54 55 55 56 53 54 55 55 56 58 62 62 62 61 63
63 62 63 63 62 61 59 59 59 58 57 57 56 56 58 57 57 58 58 58 59 56 55 56 56 54 53 54 55 55 56 55 55 54 53 54 55 58 59 60 62 62 63
61 61 60 59 58 60 59 58 57 55 54 55 55 55 55 56 56 56 56 55 56 55 55 52 56 56 56 56 57 58 57 55 54 53 53 54 55 56 55 57 60 61 58
61 60 57 58 61 58 58 57 58 56 56 54 53 54 53 52 54 53 52 53 51 50 50 50 51 52 53 53 53 55 57 56 54 51 50 50 51 52 52 53 54 56 57
61 61 59 58 58 58 57 57 54 53 51 50 52 54 52 51 48 47 44 43 45 45 50 49 48 50 51 50 50 50 50 52 50 50 49 49 49 49 50 52 52 51 51
59 60 59 58 58 56 55 55 54 53 51 52 52 50 51 52 45 43 41 42 42 46 48 49 49 50 50 49 49 49 49 49 48 48 47 47 49 52 53 53 53 50 51
59 57 58 57 58 56 56 56 56 55 54 54 54 50 49 48 47 45 42 46 49 48 48 49 49 49 48 48 48 48 47 47 46 46 46 47 47 47 50 51 52 52 52
60 58 57 57 57 57 56 56 55 55 54 54 53 52 50 46 45 42 43 48 49 49 50 49 49 48 48 48 47 47 47 49 50 50 51 51 51 50 49 49 48 48 49
59 61 59 57 56 55 55 55 55 55 54 53 53 54 54 52 52 52 49 50 49 50 49 49 48 48 47 47 47 47 46 49 49 49 49 50 49 47 46 46 47 47 48
59 58 61 57 56 55 56 57 60 59 54 58 55 54 52 54 54 53 52 52 51 50 49 49 48 47 47 47 47 46 45 48 47 48 49 48 47 45 46 46 46 47 47
56 57 58 56 55 56 58 58 57 54 54 53 52 53 50 53 53 53 52 53 52 51 50 49 48 47 47 46 46 45 45 45 46 47 48 47 46 45 45 45 45 45 46
58 58 56 56 56 57 54 53 53 53 52 52 52 53 53 52 52 52 53 53 51 50 49 49 49 47 48 47 47 46 44 44 44 44 45 45 45 44 43 43 42 41 42
58 58 58 55 55 54 53 53 52 50 52 53 52 53 52 52 53 53 54 52 51 51 50 49 49 49 47 47 46 46 45 45 44 43 44 46 44 44 43 41 41 41 41
57 57 56 55 55 53 54 53 52 52 53 53 53 52 53 53 52 53 53 52 51 50 50 49 48 49 49 49 47 47 43 37 41 41 43 45 44 43 42 42 41 41 42
57 58 55 55 54 54 53 53 53 53 53 54 54 52 53 53 53 53 52 52 51 50 51 50 50 50 51 50 49 46 41 36 38 35 42 43 43 43 43 41 41 41 42
MSLP
1005.95 1006.26 1006.94 1008.04 1009.04 1009.68 1010.11 1010.26 1010.46 1010.56 1011.85 1011.31 1010.33 1009.86 1010.54 1011.72 1011.72 1012.13 1012.35 1012.41 1012.78 1012.48 1012.12 1012.02 1011.97 1012.46 1012.48 1012.84 1013.75 1014.13 1014.17 1013.80 1014.26 1013.70 1014.46 1014.67 1014.56 1013.82 1013.24 1013.16 1013.15 1013.04 1012.98
1005.66 1006.75 1007.57 1007.95 1008.80 1009.42 1009.48 1009.21 1008.88 1009.95 1010.15 1010.63 1011.04 1011.00 1010.55 1010.50 1011.58 1011.50 1011.51 1011.61 1011.68 1011.68 1011.45 1012.11 1011.97 1012.11 1012.06 1012.67 1013.27 1013.44 1013.27 1013.31 1013.41 1014.01 1014.00 1014.26 1013.96 1013.28 1013.02 1012.83 1012.51 1012.45 1012.40
1006.08 1006.80 1007.45 1007.87 1008.57 1009.03 1009.18 1009.15 1009.56 1010.41 1010.63 1010.47 1011.12 1010.76 1009.65 1010.66 1011.42 1011.64 1011.55 1011.84 1012.01 1011.94 1011.73 1011.99 1012.15 1012.43 1012.30 1011.95 1012.51 1012.96 1013.05 1013.08 1013.48 1013.69 1013.66 1013.45 1013.50 1013.46 1013.49 1012.80 1012.44 1012.09 1012.00
1006.23 1007.06 1007.85 1008.11 1008.52 1008.86 1008.88 1009.54 1010.34 1010.75 1011.12 1011.40 1011.38 1010.86 1009.77 1010.71 1011.89 1012.21 1012.57 1012.61 1012.67 1012.34 1012.07 1011.97 1012.59 1012.92 1012.88 1012.31 1012.70 1013.01 1013.27 1013.42 1013.62 1013.64 1013.72 1013.61 1013.64 1013.50 1013.33 1013.13 1012.85 1012.41 1012.24
1007.16 1007.43 1007.93 1008.21 1008.78 1009.72 1010.06 1010.34 1010.97 1011.16 1011.28 1011.51 1010.97 1011.80 1012.05 1011.27 1011.89 1012.26 1012.57 1013.16 1012.71 1012.82 1012.54 1012.68 1012.59 1012.48 1012.62 1012.47 1012.87 1013.02 1013.28 1013.34 1013.71 1014.12 1014.36 1014.22 1013.91 1013.61 1013.74 1013.44 1013.13 1012.86 1012.47
1007.61 1008.46 1008.71 1008.53 1009.09 1009.97 1010.55 1011.14 1011.30 1011.23 1011.25 1011.04 1011.51 1011.69 1012.06 1011.69 1011.82 1012.02 1012.32 1013.50 1012.76 1012.47 1012.57 1012.60 1012.80 1013.02 1012.80 1012.61 1012.88 1013.12 1013.17 1013.33 1013.68 1014.19 1014.49 1014.71 1014.56 1013.92 1013.75 1013.50 1013.50 1013.61 1013.26
1009.12 1008.39 1008.73 1008.74 1009.75 1010.54 1010.63 1011.02 1010.65 1011.06 1011.41 1011.24 1011.65 1012.09 1012.68 1012.55 1012.54 1012.97 1013.34 1013.15 1012.48 1012.74 1012.38 1012.59 1012.88 1013.16 1013.39 1013.52 1013.36 1013.36 1013.38 1013.39 1013.62 1014.00 1014.25 1014.25 1014.04 1014.06 1014.13 1013.56 1013.28 1013.10 1012.94
1009.49 1009.44 1009.50 1009.58 1009.91 1010.31 1010.45 1010.70 1010.82 1011.11 1011.36 1011.45 1011.73 1012.24 1012.88 1012.94 1012.51 1012.92 1013.05 1013.06 1012.98 1012.87 1012.83 1012.79 1013.22 1013.66 1013.79 1013.77 1013.76 1013.86 1013.87 1013.43 1013.38 1013.67 1013.87 1014.01 1013.87 1013.55 1013.73 1013.37 1013.19 1012.65 1011.97
1009.14 1009.36 1009.27 1009.88 1010.37 1010.47 1010.63 1010.91 1011.17 1011.11 1011.25 1011.51 1011.88 1012.18 1012.50 1013.15 1013.26 1013.21 1013.19 1013.26 1013.17 1013.54 1013.25 1013.31 1013.86 1014.11 1014.28 1014.17 1014.32 1014.38 1014.30 1013.99 1013.39 1013.39 1013.10 1013.18 1013.43 1013.42 1013.09 1013.26 1013.02 1012.80 1011.68
1008.08 1008.80 1009.26 1010.18 1010.30 1010.10 1010.37 1010.42 1011.04 1011.56 1011.89 1012.04 1011.98 1012.16 1012.35 1013.13 1013.47 1013.40 1013.24 1013.36 1013.50 1013.77 1013.87 1014.24 1014.27 1014.17 1014.26 1014.24 1014.23 1014.51 1014.28 1014.18 1013.98 1013.69 1013.13 1012.84 1012.79 1012.53 1012.81 1012.99 1012.64 1012.64 1012.20
1007.50 1008.36 1008.83 1010.49 1010.30 1010.15 1010.46 1010.48 1010.87 1011.84 1011.91 1012.56 1012.64 1012.58 1012.61 1012.88 1013.35 1013.27 1013.28 1013.57 1013.82 1014.13 1014.31 1014.42 1014.32 1014.40 1014.29 1014.31 1014.32 1014.33 1014.25 1013.99 1013.77 1013.85 1013.66 1013.24 1013.02 1012.95 1012.56 1012.13 1011.89 1011.85 1011.80
1007.53 1007.66 1009.99 1010.38 1010.56 1010.83 1010.73 1011.47 1011.46 1012.23 1012.20 1012.35 1013.15 1013.03 1012.90 1013.35 1013.45 1013.65 1013.87 1014.09 1013.93 1014.08 1014.52 1014.52 1014.57 1014.46 1014.48 1014.07 1013.85 1013.73 1013.43 1013.73 1013.83 1013.89 1013.71 1013.57 1013.24 1012.74 1012.10 1011.85 1011.41 1011.19 1010.92
1007.94 1009.59 1010.43 1010.59 1010.93 1010.81 1011.12 1012.00 1012.33 1013.01 1013.02 1013.07 1013.56 1013.77 1014.02 1013.99 1014.06 1013.90 1013.85 1014.02 1014.20 1014.45 1014.73 1015.07 1014.85 1014.66 1014.18 1013.95 1013.65 1013.75 1013.59 1013.77 1013.81 1013.93 1013.79 1013.41 1013.18 1012.82 1012.36 1011.95 1011.24 1010.92 1010.35
1008.89 1010.54 1010.83 1010.79 1010.53 1010.77 1011.74 1012.02 1012.75 1013.34 1013.50 1013.55 1013.97 1014.21 1014.28 1014.32 1014.23 1014.16 1014.26 1014.29 1014.58 1014.65 1014.75 1015.11 1014.91 1014.52 1014.24 1014.14 1013.79 1013.93 1014.07 1014.20 1014.35 1014.03 1013.64 1013.31 1012.98 1012.71 1012.39 1011.92 1011.68 1010.99 1010.42
1009.60 1010.85 1011.22 1011.01 1011.19 1011.79 1012.12 1012.29 1012.78 1013.34 1013.43 1013.74 1013.92 1014.12 1014.29 1014.51 1014.36 1014.30 1014.49 1014.69 1014.69 1014.69 1014.70 1014.85 1014.93 1014.76 1014.39 1014.42 1014.33 1014.22 1014.23 1014.28 1014.24 1014.08 1014.08 1013.77 1013.47 1013.16 1012.81 1012.27 1011.87 1011.54 1011.04
1009.58 1010.47 1011.13 1011.51 1011.46 1011.91 1012.56 1012.99 1013.35 1013.39 1013.30 1013.53 1013.50 1013.54 1014.07 1014.10 1014.27 1014.68 1014.89 1014.86 1014.89 1014.82 1015.03 1015.19 1015.19 1014.97 1014.87 1014.80 1014.66 1014.35 1014.30 1014.30 1014.38 1014.18 1014.10 1013.97 1013.63 1013.17 1012.91 1012.35 1011.84 1011.53 1011.21
1009.59 1010.10 1011.24 1011.43 1011.79 1012.57 1012.96 1013.14 1013.78 1014.00 1013.54 1013.38 1013.48 1013.41 1013.67 1013.73 1014.13 1014.43 1014.83 1015.01 1015.01 1015.11 1015.11 1014.95 1015.03 1015.01 1014.86 1014.54 1014.36 1014.29 1014.30 1014.38 1014.05 1013.88 1014.07 1013.89 1013.56 1013.21 1012.77 1012.41 1012.06 1011.68 1011.31
1010.11 1010.70 1011.32 1011.62 1012.11 1012.54 1012.80 1013.25 1013.35 1013.44 1013.56 1013.82 1013.33 1013.36 1013.75 1013.73 1013.91 1014.18 1014.37 1014.54 1014.92 1015.19 1015.11 1014.84 1014.77 1014.73 1014.67 1014.51 1014.26 1014.12 1014.04 1013.87 1013.91 1013.94 1013.76 1013.52 1013.14 1012.88 1012.52 1012.24 1011.89 1011.54 1011.24
1010.76 1011.13 1011.49 1011.85 1012.26 1012.59 1012.77 1013.24 1013.38 1013.20 1013.35 1013.35 1013.52 1013.28 1013.24 1013.42 1013.78 1014.13 1014.38 1014.68 1014.65 1014.68 1014.57 1014.69 1014.62 1014.58 1014.46 1014.29 1014.23 1014.17 1014.25 1014.11 1013.81 1013.56 1013.26 1013.00 1012.73 1012.60 1012.38 1012.08 1011.80 1011.44 1011.03
1010.93 1011.43 1011.83 1012.36 1012.71 1012.98 1013.18 1013.08 1012.96 1012.86 1013.06 1013.19 1012.96 1012.90 1012.98 1013.54 1013.90 1014.08 1014.05 1014.28 1014.26 1014.09 1014.19 1014.23 1014.40 1014.46 1014.44 1014.37 1014.20 1014.06 1013.88 1013.69 1013.48 1013.26 1013.04 1012.85 1012.80 1012.79 1012.63 1012.25 1011.86 1011.46 1010.87
1011.47 1011.74 1011.88 1012.30 1012.87 1013.14 1013.03 1012.76 1012.42 1012.57 1012.74 1012.81 1012.57 1012.45 1012.61 1013.16 1013.26 1013.22 1013.39 1013.37 1013.65 1013.97 1013.83 1013.91 1014.01 1013.94 1013.98 1013.92 1013.80 1013.62 1013.59 1013.28 1013.08 1013.05 1012.98 1012.94 1012.92 1012.82 1012.60 1012.22 1011.79 1011.29 1010.76
1011.87 1011.78 1011.85 1012.13 1012.66 1012.84 1012.75 1012.44 1012.29 1012.59 1012.60 1012.55 1012.34 1012.45 1012.39 1012.70 1013.04 1012.98 1012.93 1012.82 1012.84 1013.16 1013.21 1013.26 1013.41 1013.42 1013.39 1013.37 1013.31 1013.30 1013.38 1013.19 1012.97 1012.92 1012.82 1012.79 1012.75 1012.61 1012.33 1011.96 1011.64 1011.31 1010.83
1011.84 1012.03 1012.12 1012.30 1012.50 1012.75 1012.67 1012.52 1012.49 1012.53 1012.34 1012.23 1012.35 1012.44 1012.56 1012.75 1012.68 1012.67 1012.52 1012.34 1012.50 1012.81 1012.85 1012.89 1012.90 1012.82 1012.69 1012.73 1012.72 1012.76 1012.88 1012.73 1012.62 1012.70 1012.77 1012.67 1012.55 1012.31 1012.04 1011.79 1011.56 1011.24 1010.81
1011.72 1011.93 1012.03 1012.31 1012.40 1012.26 1012.11 1012.22 1012.44 1012.38 1012.24 1012.21 1012.31 1012.32 1012.41 1012.51 1012.33 1012.00 1011.85 1011.84 1012.07 1012.18 1012.08 1012.23 1012.24 1012.28 1012.22 1012.06 1011.98 1011.96 1012.02 1011.99 1012.03 1012.14 1012.28 1012.29 1012.16 1011.97 1011.76 1011.52 1011.21 1010.84 1010.39
1011.83 1011.82 1011.76 1011.77 1011.77 1012.08 1012.14 1012.31 1012.31 1012.22 1012.14 1012.14 1012.09 1012.06 1012.03 1011.94 1011.85 1011.69 1011.59 1011.52 1011.58 1011.61 1011.60 1011.60 1011.47 1011.41 1011.37 1011.20 1011.10 1011.02 1010.99 1011.12 1011.30 1011.30 1011.56 1011.67 1011.60 1011.47 1011.31 1011.01 1010.65 1010.27 1009.76
1011.64 1011.71 1011.50 1011.43 1011.48 1011.80 1012.06 1012.28 1012.30 1012.21 1011.99 1011.94 1011.69 1011.44 1011.24 1011.28 1011.18 1011.08 1011.02 1011.04 1011.01 1010.91 1010.78 1010.72 1010.55 1010.45 1010.33 1010.23 1009.99 1009.85 1009.96 1010.09 1010.35 1010.54 1010.88 1011.10 1011.10 1010.87 1010.67 1010.33 1009.94 1009.67 1009.04
Wind_Speed
16 15 13 6 8 9 7 6 6 6 11 10 9 11 11 6 6 7 8 6 8 7 5 5 5 8 5 5 4 5 3 3 5 3 5 7 12 11 7 4 4 5 5
13 8 7 9 11 10 8 8 5 4 6 5 9 7 5 8 7 7 5 5 5 5 4 6 7 5 5 7 6 6 4 2 4 5 6 5 9 5 7 6 6 5 8
7 11 10 11 11 8 4 3 9 6 5 9 8 5 7 3 3 5 5 6 6 5 5 2 6 5 5 4 2 3 3 3 3 2 2 1 4 2 6 8 8 5 5
12 12 11 10 8 6 5 7 5 1 1 4 7 10 13 10 9 8 8 6 5 4 5 7 3 4 2 3 4 3 1 2 1 1 2 2 1 3 2 1 3 2 3
12 12 8 8 8 8 8 8 6 5 7 5 10 7 5 10 4 5 4 4 5 4 5 2 1 1 4 6 3 2 1 2 2 2 2 2 2 2 1 2 2 3 4
9 11 8 8 6 5 5 4 7 8 6 6 5 4 2 4 12 10 7 4 4 5 4 5 4 6 8 10 9 5 4 3 2 2 2 2 3 3 2 2 1 1 4
7 6 5 8 7 5 5 5 6 6 4 5 5 5 4 5 8 8 9 3 4 4 5 4 4 5 7 6 8 7 7 8 4 1 2 3 3 2 4 3 3 4 4
8 6 5 5 6 5 6 5 5 4 4 4 6 7 6 3 8 7 7 4 4 4 4 4 4 6 6 5 5 5 5 4 3 1 4 5 6 6 5 4 5 6 4
12 10 7 5 5 5 6 6 3 5 4 4 5 6 7 4 5 7 6 5 7 7 6 8 8 6 6 8 6 4 4 5 4 8 6 5 10 13 11 5 5 3 7
7 8 8 6 8 7 6 7 4 3 3 3 5 5 8 7 4 7 6 4 6 5 5 5 9 6 7 6 4 3 4 6 5 7 7 7 8 8 10 8 4 5 4
11 11 10 5 6 6 5 4 6 5 5 4 4 4 6 6 4 7 9 5 4 4 4 3 3 7 7 7 5 5 7 4 6 5 5 5 5 5 4 4 6 5 4
11 14 6 6 5 5 8 4 6 5 4 4 3 3 4 5 5 7 10 8 5 4 3 3 4 9 11 10 5 9 8 5 1 1 1 2 3 4 5 5 6 4 5
11 8 7 6 6 5 7 6 5 5 5 5 4 5 5 4 3 8 8 8 6 3 2 4 8 10 10 7 7 7 6 4 3 2 2 2 2 4 5 5 5 5 6
9 6 4 6 6 7 5 5 5 4 4 4 4 5 4 3 3 3 4 4 5 4 4 3 6 6 4 2 4 6 4 3 1 1 1 3 4 4 4 3 6 7 5
8 5 3 4 5 5 4 4 5 2 5 5 4 5 5 3 3 4 4 3 1 2 4 2 4 4 4 4 3 4 3 3 3 2 3 4 3 3 3 3 3 5 5
7 4 4 4 4 5 4 4 14 9 10 10 9 7 2 3 7 7 5 4 4 2 2 2 2 2 1 1 2 1 2 3 2 2 1 2 3 3 4 5 4 3 4
6 5 4 4 5 5 3 4 4 2 4 4 6 7 5 7 9 2 1 2 2 1 1 1 1 1 1 1 1 1 1 1 1 2 2 3 3 2 6 5 5 3 5
6 8 5 4 5 5 5 4 4 4 3 2 4 5 5 6 4 3 2 3 1 1 2 2 2 1 2 2 2 2 2 3 3 3 3 3 3 2 4 5 5 7 7
6 5 5 5 4 5 4 4 4 4 4 3 1 3 6 8 5 4 4 2 2 2 3 2 2 2 2 1 1 1 2 3 3 3 4 4 4 5 6 6 6 8 9
5 4 5 4 3 3 2 3 4 3 2 3 2 3 1 3 1 2 4 3 4 4 4 3 3 3 3 3 3 3 3 3 3 3 4 3 3 3 5 6 6 7 7
3 2 3 3 3 3 3 5 4 3 3 3 3 3 6 4 4 3 2 4 4 4 5 5 4 3 3 3 3 3 3 3 3 3 3 1 3 4 4 5 6 6 6
3 3 4 4 2 1 2 3 2 3 2 1 2 2 1 1 1 4 1 4 5 5 4 4 4 4 4 3 3 2 4 4 3 3 4 3 4 4 5 5 6 6 6
3 3 2 3 3 3 2 1 2 2 1 1 2 2 2 2 3 4 3 5 5 5 5 4 4 4 4 4 4 4 4 4 4 3 4 6 5 6 5 6 5 6 6
1 3 4 3 3 2 1 1 2 2 2 2 3 3 4 4 4 4 4 4 5 5 5 5 5 6 6 5 5 5 5 5 4 5 6 6 6 7 6 6 6 7 8
2 3 3 3 3 2 1 1 3 3 3 4 4 3 4 4 4 4 4 5 5 5 6 6 5 8 10 10 9 9 9 12 9 6 4 7 9 10 9 8 8 8 10
2 2 2 3 2 2 3 3 4 4 4 5 5 5 5 4 5 5 4 4 5 6 8 6 8 11 12 10 12 13 12 13 9 12 7 6 6 8 8 9 10 8 10
Wind_Direction
202 203 201 167 114 110 117 131 144 100 332 285 227 205 165 184 199 195 207 191 208 232 237 188 161 172 196 149 174 213 232 173 161 156 199 226 254 269 271 250 231 225 226
203 192 143 128 128 131 156 180 166 322 71 13 328 283 262 164 188 215 215 190 205 213 180 138 158 174 186 169 195 193 181 188 122 199 199 214 210 252 266 283 266 249 235
139 118 123 135 140 162 171 54 53 67 49 27 32 292 178 246 71 50 87 81 58 35 41 83 167 205 210 171 206 217 183 155 182 185 225 222 229 232 275 266 264 246 221
118 124 127 137 138 137 101 75 70 359 74 69 59 70 59 49 71 57 35 38 41 42 62 60 50 26 226 142 152 173 166 122 81 120 287 290 239 265 237 303 336 344 303
108 123 125 111 107 103 111 126 121 100 128 136 113 102 96 116 102 96 71 17 49 3 36 358 353 155 262 190 150 169 110 83 49 357 319 318 306 11 326 311 317 319 295
103 99 101 107 98 108 140 173 178 152 142 118 108 141 157 126 131 119 103 189 147 132 99 69 85 42 48 86 103 121 94 86 56 26 348 268 289 293 274 243 223 313 304
116 119 125 128 142 159 145 167 116 108 131 119 125 103 83 112 108 139 160 159 147 154 106 88 70 61 52 38 42 57 81 87 102 77 320 297 314 282 296 273 221 197 224
146 144 132 130 126 140 130 122 110 120 110 124 125 125 131 127 121 108 112 120 86 64 77 72 65 57 34 49 54 55 25 12 28 201 202 269 260 284 281 268 293 288 276
143 144 134 129 151 139 121 117 102 101 104 111 122 130 120 116 128 117 105 73 77 54 44 73 84 74 44 55 60 42 350 308 317 304 301 282 259 266 270 316 290 288 291
133 134 134 170 167 130 124 111 82 83 87 86 100 120 133 135 134 107 107 103 75 82 77 70 68 73 27 21 31 346 318 286 307 316 312 309 314 307 284 218 219 223 236
130 127 103 133 122 118 109 102 113 103 117 94 107 137 142 141 130 93 84 80 94 84 92 39 8 356 335 306 259 222 219 226 277 275 299 310 308 286 286 270 237 219 232
114 99 121 128 118 124 103 70 68 70 68 75 79 62 94 119 123 93 86 90 79 83 55 16 339 327 321 311 300 257 268 277 236 271 59 356 327 325 327 325 321 287 249
99 120 147 129 130 103 103 109 93 76 68 62 80 85 81 88 96 93 82 65 61 77 50 337 312 305 301 310 293 318 44 43 65 65 10 308 260 273 308 315 322 315 308
104 130 139 135 114 105 98 104 114 125 115 107 100 95 101 101 102 69 67 71 61 60 353 331 305 294 310 302 54 65 71 67 36 357 305 308 317 333 335 346 332 330 318
123 131 117 98 105 112 96 136 136 107 130 144 154 143 132 141 208 151 133 121 126 313 319 47 3 3 22 23 23 56 48 30 35 29 5 346 317 317 295 314 305 315 316
110 120 130 145 104 97 112 84 49 99 101 118 159 154 189 226 160 144 125 145 150 45 67 6 351 311 20 3 339 8 13 24 4 7 310 305 302 314 307 318 311 300 304
132 126 149 114 108 133 130 121 134 0 80 147 162 148 160 176 159 171 44 352 267 94 31 289 264 204 233 297 282 257 227 205 337 319 298 278 274 312 326 316 310 288 296
103 109 117 117 125 116 128 145 143 143 147 249 275 233 243 253 256 189 130 334 99 107 227 233 176 209 263 290 312 319 340 345 332 310 308 308 311 300 312 320 326 323 322
117 97 101 112 144 152 136 142 153 140 157 171 310 343 250 236 235 145 157 236 254 254 204 186 193 205 187 225 266 299 305 290 291 301 319 320 337 350 330 322 316 313 309
59 106 124 119 106 111 158 180 177 183 173 183 189 203 137 65 342 221 213 221 218 214 170 153 199 205 207 210 220 235 271 275 281 300 308 319 340 325 309 312 316 316 316
59 345 188 130 131 185 220 228 229 201 201 227 223 206 180 189 255 261 194 223 179 178 175 181 198 203 207 221 232 267 277 278 273 282 294 284 298 296 291 293 301 306 307
79 63 95 106 147 18 355 34 108 151 158 232 283 290 277 122 269 272 240 207 187 189 182 181 194 210 218 229 246 256 269 270 279 286 289 275 278 279 285 295 305 304 314
81 113 105 120 139 135 76 68 170 177 133 325 284 283 290 259 262 279 238 223 184 190 197 191 198 216 218 222 223 221 244 250 243 244 272 284 289 291 293 296 293 294 292
82 118 135 153 189 122 99 199 203 236 226 245 253 242 242 259 269 287 273 216 188 210 200 203 210 219 226 224 221 217 224 236 225 229 236 265 279 289 283 277 276 278 280
160 130 111 151 158 181 249 231 230 234 248 245 242 238 243 254 268 276 250 213 211 210 220 221 219 226 236 233 230 226 222 225 228 217 218 250 264 275 278 281 277 278 274
219 172 165 102 140 208 211 235 255 257 256 260 238 240 245 246 251 254 267 250 229 227 225 223 230 229 238 240 244 237 228 227 227 228 224 236 254 266 270 267 267 267 272